Other Surface Observations
Issued by NWS Charleston, SC

Home | Current Version | Previous Version | Text Only | Print | Product List | Glossary On
Versions: 1 2 3 4 5 6 7 8 9 10 11 12 13 14 15 16 17 18 19 20 21 22 23 24 25 26 27 28 29 30 31 32 33 34 35 36 37 38 39 40 41 42 43 44 45 46 47 48 49 50
000
SXUS52 KCHS 011028
OSOCHS

MARINE OBSERVATIONS
NATIONAL WEATHER SERVICE CHARLESTON SC
600 AM EDT SAT OCT 01 2016

...DOWNTOWN CHARLESTON AND HARBOR...

CITY           SKY/WX    TMP DP  RH WIND       PRES   REMARKS
WATERFRONT PRK   N/A     72  64  76 N7        30.01R

...LAKE MOULTRIE...

CITY           SKY/WX    TMP DP  RH WIND       PRES   REMARKS
PINOPOLIS        N/A    N/A N/A N/A VRB3      29.95R

...LAKE AND SUPPLEMENTAL COASTAL OBSERVATIONS...

STATION/POSITION TIME  TEMP    WIND        PRES    WAVE   SWELL
                       AIR SEA DIR/SP/G            HT/PER HT/PER/DIR
                 (UTC) (F)     (DEG/KT/KT) (MB)    (FT/S) (FT/S/D)
FORT PULASKI     1000   69 81  340/  7/  8 1017.3
SAPELO ISLAND    1000   70     360/  7     1017.0
WINYAH BAY       0945   68     330/  4     1016.0S
LAKE MURRAY      1020   63     310/  2/  4 1017.3
ACE BASIN NERRS  0945   65     340/  1     1017.0S


...C-MAN AND BUOY OBSERVATIONS...

STATION/POSITION TIME  TEMP    WIND        PRES    WAVE   SWELL
                       AIR SEA DIR/SP/G            HT/PER HT/PER/DIR
                 (UTC) (F)     (DEG/KT/KT) (MB)    (FT/S) (FT/S/D)
BUOY 41004       0950   80 82   40/ 10/ 12 1016.1R   2/10   2/100/10
BUOY 41008       0950   79 82   10/ 12/ 16 1016.0R   2/ 3   2/ 70/10
FOLLY BEACH CMAN 1000   72     350/  6/  8 1017.3R
CAPERS NS BUOY   1008   76 81   20/ 10/ 12 1016.8R
FRIPP NS BUOY    1008   74 81   10/ 12/ 16 1017.0R
5E ST. MARYS GA  1001      83                N/A     2/ 3


STATION/POSITION TIME  TEMP    WIND        PRES    WAVE   SWELL
                       AIR SEA DIR/SP/G            HT/PER HT/PER/DIR
                 (UTC) (F)     (DEG/KT/KT) (MB)    (FT/S) (FT/S/D)
FRYING PAN BUOY  1010   78 82  170/ 14/ 16 1017.5
BUOY 41025       0950   81 83  180/ 17/ 21 1017.1R   6/11   5/ 60/11
CAPE LOOKOUT NC  1000   74     230/ 12/ 16 1017.4R
BUOY 41002       0950   82 83  140/ 10/ 12 1018.1R   6/11   7/11
BUOY 41010       NOT AVBL
ST AUGUSTINE FL  1000   73 82  300/  3/  3 1017.4R

$$




USA.gov is the U.S. government's official web portal to all federal, state and local government web resources and services.